Starlink 1752

operational
NORAD ID: 46338 Int'l Des: 2020-062 Owner: SPXS Country: US Constellation: starlink
LEOCIRCULARSTARLINK_TYPE

关于 Starlink 1752

正在加载描述...

实时位置

正在加载3D地球...

即将过境

高度历史

Altitude vs Time

uPlot chart will show altitude changes over time

两行轨道根数

1 46338U 20062P 25304.00002315 .01769973 00000-0 58687-1 0 9996
2 46338 53.0553 238.0185 0001174 94.1424 71.2832 15.27836731 5800
Epoch: Oct 31, 2025 • Age: 6 hours

当前状态

高度 483.2 km
速度 7.63 km/s
星下点 42.63°N, 117.83°W
发射日期 Sep 3, 2020
运行时间 5.1 years
类型 internet

技术详情

分类 Payload
质量 260.00 kg
干质量 248.00 kg
总质量 260.00 kg
长度 0.20 m
直径 2.80 m
跨度 9.00 m
形状 Box + pan
制造商 SPXS
平台类型 Starlink
阶段状态 In Orbit
所有者/国家 SPXS/US

大型星座

Loading constellations...